Ft Riley, KS

6:36 PM CDT on June 23, 2017 (GMT -0500)
Marshall Army Air Field

Weather History for KFRI - February, 2013

Change the Weather History Date:

Monday, February 18, 2013

  Actual Average (KMHK) Record (KMHK)
Temperature  
Mean Temperature 39 °F -  
Max Temperature 55 °F 45 °F 78 °F (2016)
Min Temperature 20 °F 23 °F 1 °F (2006)
Degree Days  
Heating Degree Days 26    
Moisture  
Dew Point 30 °F    
Average Humidity 70    
Maximum Humidity 100    
Minimum Humidity 37    
Precipitation  
Precipitation 0.16 in - - ()
Sea Level Pressure  
Sea Level Pressure 29.81 in    
Wind  
Wind Speed 16 mph (NNW)    
Max Wind Speed 26 mph    
Max Gust Speed 37 mph    
Visibility 10 miles    
Events Rain    
Averages and records for this station are not official NWS values.
T = Trace of Precipitation, MM = Missing Value Source: NWS Daily Summary

Daily Weather History Graph

Daily Weather History Graph

Search for Another Location

Airport or City:

Trip Planner

Search our weather history database for the weather conditions in past years. The results will help you decide how hot, cold, wet, or windy it might be!

Date:

Astronomy

Feb. 18, 2013 Rise Set
Actual Time 7:14 AM CST 6:08 PM CST
Civil Twilight 6:47 AM CST 6:35 PM CST
Nautical Twilight 6:16 AM CST 7:06 PM CST
Astronomical Twilight 5:45 AM CST 7:37 PM CST
Moon 11:56 AM CST (2/18) 1:53 AM CST (2/18)
Length of Visible Light 11h 48m
Length of Day
10h 53m
First Quarter, 58% of the Moon is Illuminated
Feb 18
First Quarter
Feb 25
Full
Mar 4
Last Quarter
Mar 11
New
Mar 19
First Quarter

Hourly Weather History & Observations

Time (CST) Temp. Windchill Dew Point Humidity Pressure Visibility Wind Dir Wind Speed Gust Speed Precip Events Conditions
12:55 AM 55.0 °F - 28.8 °F 37% 29.50 in 10.0 mi South 23.0 mph 35.7 mph 0.01 in   Clear
1:55 AM 52.7 °F - 29.1 °F 40% 29.49 in 10.0 mi South 16.1 mph - N/A   Clear
2:55 AM 51.3 °F - 29.8 °F 44% 29.46 in 10.0 mi South 12.7 mph - N/A   Clear
3:55 AM 50.5 °F - 31.1 °F 47% 29.47 in 10.0 mi South 8.1 mph - N/A   Clear
4:55 AM 48.6 °F - 32.9 °F 55% 29.47 in 10.0 mi SW 8.1 mph - N/A   Clear
5:55 AM 44.4 °F 42.9 °F 31.6 °F 61% 29.50 in 10.0 mi North 3.5 mph - N/A   Clear
6:55 AM 39.0 °F 34.8 °F 29.5 °F 69% 29.53 in 10.0 mi North 5.8 mph - N/A   Partly Cloudy
7:55 AM 42.6 °F 34.9 °F 31.3 °F 64% 29.58 in 10.0 mi North 16.1 mph 26.5 mph N/A   Overcast
8:55 AM 41.7 °F 33.7 °F 31.6 °F 67% 29.65 in 10.0 mi North 16.1 mph 27.6 mph N/A   Scattered Clouds
9:55 AM 45.9 °F 37.0 °F 30.4 °F 55% 29.69 in 10.0 mi North 26.5 mph 36.8 mph 0.03 in   Scattered Clouds
10:55 AM 45.0 °F 36.6 °F 30.2 °F 56% 29.73 in 10.0 mi NNW 21.9 mph 36.8 mph 0.09 in   Scattered Clouds
11:55 AM 41.4 °F 31.6 °F 31.5 °F 68% 29.81 in 10.0 mi NNW 23.0 mph 34.5 mph 0.02 in   Mostly Cloudy
12:07 PM 39.2 °F 28.7 °F 33.8 °F 81% 29.83 in 10.0 mi NNW 23.0 mph 34.5 mph N/A   Light Drizzle
12:16 PM 37.4 °F 27.2 °F 35.6 °F 93% 29.83 in 10.0 mi NNW 19.6 mph 34.5 mph N/A Rain Light Rain
12:18 PM 37.4 °F 28.2 °F 35.6 °F 93% 29.83 in 10.0 mi NNW 16.1 mph 33.4 mph N/A Rain Light Rain
12:23 PM 37.4 °F 26.6 °F 37.4 °F 100% 29.83 in 10.0 mi NNW 21.9 mph 33.4 mph N/A Rain Light Rain
12:30 PM 37.4 °F 27.8 °F 37.4 °F 100% 29.83 in 10.0 mi NNW 17.3 mph 32.2 mph N/A Rain Light Rain
12:39 PM 37.4 °F 26.9 °F 37.4 °F 100% 29.83 in 9.0 mi NNW 20.7 mph 27.6 mph N/A   Overcast
12:50 PM 37.4 °F 28.5 °F 37.4 °F 100% 29.83 in 10.0 mi NNW 15.0 mph 24.2 mph N/A Rain Light Rain
12:55 PM 37.8 °F 28.0 °F 37.6 °F 99% 29.83 in 10.0 mi NNW 18.4 mph 25.3 mph 0.00 in Rain Light Rain
1:10 PM 39.2 °F 31.6 °F 39.2 °F 100% 29.83 in 10.0 mi NNW 12.7 mph 23.0 mph N/A   Overcast
1:13 PM 39.2 °F 30.5 °F 39.2 °F 100% 29.83 in 10.0 mi NW 16.1 mph 25.3 mph N/A   Overcast
1:24 PM 39.2 °F 30.5 °F 37.4 °F 93% 29.83 in 10.0 mi NNW 16.1 mph 25.3 mph N/A   Overcast
1:25 PM 39.2 °F 30.5 °F 37.4 °F 93% 29.83 in 10.0 mi NNW 16.1 mph 25.3 mph N/A   Overcast
1:32 PM 39.2 °F 30.2 °F 35.6 °F 87% 29.84 in 10.0 mi NNW 17.3 mph 28.8 mph N/A   Overcast
1:52 PM 41.0 °F 30.9 °F 30.2 °F 65% 29.84 in 10.0 mi NNW 24.2 mph 32.2 mph N/A   Overcast
1:53 PM 41.0 °F 31.4 °F 30.2 °F 65% 29.85 in 10.0 mi NNW 21.9 mph 32.2 mph N/A   Overcast
1:55 PM 41.5 °F 32.6 °F 30.4 °F 65% 29.85 in 10.0 mi NNW 19.6 mph 32.2 mph 0.01 in   Overcast
1:57 PM 41.0 °F 33.5 °F 30.2 °F 65% 29.85 in 10.0 mi NNW 13.8 mph 32.2 mph N/A   Overcast
2:55 PM 42.4 °F 33.1 °F 25.0 °F 50% 29.88 in 10.0 mi NNW 23.0 mph 32.2 mph N/A   Mostly Cloudy
3:55 PM 40.5 °F 32.8 °F 23.2 °F 50% 29.92 in 10.0 mi NNW 13.8 mph 31.1 mph N/A   Partly Cloudy
4:55 PM 40.8 °F 32.0 °F 20.1 °F 44% 29.95 in 10.0 mi NW 18.4 mph 26.5 mph N/A   Partly Cloudy
5:55 PM 39.4 °F 31.4 °F 18.3 °F 43% 30.00 in 10.0 mi NNW 13.8 mph 25.3 mph N/A   Clear
6:55 PM 35.8 °F 28.3 °F 17.8 °F 48% 30.05 in 10.0 mi NNW 10.4 mph - N/A   Clear
7:55 PM 32.9 °F 27.5 °F 16.9 °F 52% 30.08 in 10.0 mi Variable 5.8 mph - N/A   Clear
8:55 PM 31.6 °F - 16.7 °F 54% 30.12 in 10.0 mi Calm Calm - N/A   Clear
9:55 PM 27.7 °F - 16.3 °F 62% 30.14 in 10.0 mi Calm Calm - N/A   Clear
10:55 PM 23.9 °F 18.0 °F 16.5 °F 73% 30.15 in 10.0 mi SSW 4.6 mph - N/A   Clear
11:55 PM 20.7 °F - 17.2 °F 87% 30.17 in 10.0 mi Calm Calm - N/A   Clear